owner,sensor,date,latitude,longitude,mass_concentration_of_chlorophyll_in_sea_water,qcFlag 
SCCF RECON,ioos:station:SCCF:18:1,2014-03-01T00:00:00Z,26.6955,-81.8138,8.06,1111122 
SCCF RECON,ioos:station:SCCF:18:1,2014-03-01T01:00:00Z,26.6955,-81.8138,6.98,1111122 
SCCF RECON,ioos:station:SCCF:18:1,2014-03-01T02:00:00Z,26.6955,-81.8138,7.92,1111122 
SCCF RECON,ioos:station:SCCF:18:1,2014-03-01T03:00:00Z,26.6955,-81.8138,7.68,1111122 
SCCF RECON,ioos:station:SCCF:18:1,2014-03-01T04:00:00Z,26.6955,-81.8138,7.55,1111122 
SCCF RECON,ioos:station:SCCF:18:1,2014-03-01T05:00:00Z,26.6955,-81.8138,5.92,1111122 
SCCF RECON,ioos:station:SCCF:18:1,2014-03-01T06:00:00Z,26.6955,-81.8138,6.22,1111122 
SCCF RECON,ioos:station:SCCF:18:1,2014-03-01T07:00:00Z,26.6955,-81.8138,5.94,1111122 
SCCF RECON,ioos:station:SCCF:18:1,2014-03-01T08:00:00Z,26.6955,-81.8138,5.08,1111122 
SCCF RECON,ioos:station:SCCF:18:1,2014-03-01T09:00:00Z,26.6955,-81.8138,5.46,1111122 
SCCF RECON,ioos:station:SCCF:18:1,2014-03-01T10:00:00Z,26.6955,-81.8138,5.59,1111122 
SCCF RECON,ioos:station:SCCF:18:1,2014-03-01T11:00:00Z,26.6955,-81.8138,6.01,1111122 
SCCF RECON,ioos:station:SCCF:18:1,2014-03-01T12:00:00Z,26.6955,-81.8138,6.42,1111122 
SCCF RECON,ioos:station:SCCF:18:1,2014-03-01T13:00:00Z,26.6955,-81.8138,6.05,1111122 
SCCF RECON,ioos:station:SCCF:18:1,2014-03-01T14:00:00Z,26.6955,-81.8138,6.12,1111122 
SCCF RECON,ioos:station:SCCF:18:1,2014-03-01T15:00:00Z,26.6955,-81.8138,6.04,1111122 
SCCF RECON,ioos:station:SCCF:18:1,2014-03-01T16:00:00Z,26.6955,-81.8138,7.48,1111122 
SCCF RECON,ioos:station:SCCF:18:1,2014-03-01T17:00:00Z,26.6955,-81.8138,7.44,1111122 
SCCF RECON,ioos:station:SCCF:18:1,2014-03-01T18:00:00Z,26.6955,-81.8138,8.08,1111122 
SCCF RECON,ioos:station:SCCF:18:1,2014-03-01T19:00:00Z,26.6955,-81.8138,6.64,1111122 
SCCF RECON,ioos:station:SCCF:18:1,2014-03-01T20:00:00Z,26.6955,-81.8138,7.79,1111122 
SCCF RECON,ioos:station:SCCF:18:1,2014-03-01T21:00:00Z,26.6955,-81.8138,8.33,1111122 
SCCF RECON,ioos:station:SCCF:18:1,2014-03-01T22:00:00Z,26.6955,-81.8138,8.56,1111122 
SCCF RECON,ioos:station:SCCF:18:1,2014-03-01T23:00:00Z,26.6955,-81.8138,7.71,1111122 
SCCF RECON,ioos:station:SCCF:18:1,2014-03-02T00:00:00Z,26.6955,-81.8138,9.02,1111122 
SCCF RECON,ioos:station:SCCF:18:1,2014-03-02T01:00:00Z,26.6955,-81.8138,9.22,1111122 
SCCF RECON,ioos:station:SCCF:18:1,2014-03-02T02:00:00Z,26.6955,-81.8138,8.87,1111122 
SCCF RECON,ioos:station:SCCF:18:1,2014-03-02T03:00:00Z,26.6955,-81.8138,7.88,1111122 
SCCF RECON,ioos:station:SCCF:18:1,2014-03-02T04:00:00Z,26.6955,-81.8138,7.74,1111122 
SCCF RECON,ioos:station:SCCF:18:1,2014-03-02T05:00:00Z,26.6955,-81.8138,7.92,1111122 
SCCF RECON,ioos:station:SCCF:18:1,2014-03-02T06:00:00Z,26.6955,-81.8138,7.82,1111122 
SCCF RECON,ioos:station:SCCF:18:1,2014-03-02T07:00:00Z,26.6955,-81.8138,6.32,1111122 
SCCF RECON,ioos:station:SCCF:18:1,2014-03-02T08:00:00Z,26.6955,-81.8138,6.19,1111122 
SCCF RECON,ioos:station:SCCF:18:1,2014-03-02T09:00:00Z,26.6955,-81.8138,5.36,1111122 
SCCF RECON,ioos:station:SCCF:18:1,2014-03-02T10:00:00Z,26.6955,-81.8138,6.07,1111122 
SCCF RECON,ioos:station:SCCF:18:1,2014-03-02T11:00:00Z,26.6955,-81.8138,6.17,1111122 
SCCF RECON,ioos:station:SCCF:18:1,2014-03-02T12:00:00Z,26.6955,-81.8138,6.43,1111122 
SCCF RECON,ioos:station:SCCF:18:1,2014-03-02T13:00:00Z,26.6955,-81.8138,6.59,1111122 
SCCF RECON,ioos:station:SCCF:18:1,2014-03-02T14:00:00Z,26.6955,-81.8138,6.22,1111122 
SCCF RECON,ioos:station:SCCF:18:1,2014-03-02T15:00:00Z,26.6955,-81.8138,6.87,1111122 
SCCF RECON,ioos:station:SCCF:18:1,2014-03-02T16:00:00Z,26.6955,-81.8138,6.71,1111122 
SCCF RECON,ioos:station:SCCF:18:1,2014-03-02T17:00:00Z,26.6955,-81.8138,7.8,1111122 
SCCF RECON,ioos:station:SCCF:18:1,2014-03-02T18:00:00Z,26.6955,-81.8138,8.22,1111122 
SCCF RECON,ioos:station:SCCF:18:1,2014-03-02T19:00:00Z,26.6955,-81.8138,8.09,1111122 
SCCF RECON,ioos:station:SCCF:18:1,2014-03-02T20:00:00Z,26.6955,-81.8138,9.13,1111122 
SCCF RECON,ioos:station:SCCF:18:1,2014-03-02T21:00:00Z,26.6955,-81.8138,7.68,1111122 
SCCF RECON,ioos:station:SCCF:18:1,2014-03-02T22:00:00Z,26.6955,-81.8138,7.49,1111122 
SCCF RECON,ioos:station:SCCF:18:1,2014-03-02T23:00:00Z,26.6955,-81.8138,6.85,1111122 
SCCF RECON,ioos:station:SCCF:18:1,2014-03-03T00:00:00Z,26.6955,-81.8138,7.62,1111122 
SCCF RECON,ioos:station:SCCF:18:1,2014-03-03T01:00:00Z,26.6955,-81.8138,8.69,1111122 
SCCF RECON,ioos:station:SCCF:18:1,2014-03-03T02:00:00Z,26.6955,-81.8138,8.07,1111122 
SCCF RECON,ioos:station:SCCF:18:1,2014-03-03T03:00:00Z,26.6955,-81.8138,8.32,1111122 
SCCF RECON,ioos:station:SCCF:18:1,2014-03-03T04:00:00Z,26.6955,-81.8138,8.23,1111122 
SCCF RECON,ioos:station:SCCF:18:1,2014-03-03T05:00:00Z,26.6955,-81.8138,7.4,1111122 
SCCF RECON,ioos:station:SCCF:18:1,2014-03-03T06:00:00Z,26.6955,-81.8138,7.36,1111122 
SCCF RECON,ioos:station:SCCF:18:1,2014-03-03T07:00:00Z,26.6955,-81.8138,6.72,1111122 
SCCF RECON,ioos:station:SCCF:18:1,2014-03-03T08:00:00Z,26.6955,-81.8138,7.09,1111122 
SCCF RECON,ioos:station:SCCF:18:1,2014-03-03T09:00:00Z,26.6955,-81.8138,6.86,1111122 
SCCF RECON,ioos:station:SCCF:18:1,2014-03-03T10:00:00Z,26.6955,-81.8138,5.59,1111122 
SCCF RECON,ioos:station:SCCF:18:1,2014-03-03T11:00:00Z,26.6955,-81.8138,5.75,1111122 
SCCF RECON,ioos:station:SCCF:18:1,2014-03-03T12:00:00Z,26.6955,-81.8138,6.26,1111122 
SCCF RECON,ioos:station:SCCF:18:1,2014-03-03T13:00:00Z,26.6955,-81.8138,6.09,1111122 
SCCF RECON,ioos:station:SCCF:18:1,2014-03-03T14:00:00Z,26.6955,-81.8138,6.6,1111122 
SCCF RECON,ioos:station:SCCF:18:1,2014-03-03T15:00:00Z,26.6955,-81.8138,6.68,1111122 
SCCF RECON,ioos:station:SCCF:18:1,2014-03-03T16:00:00Z,26.6955,-81.8138,9.1,1111122 
SCCF RECON,ioos:station:SCCF:18:1,2014-03-03T17:00:00Z,26.6955,-81.8138,6.34,1111122 
SCCF RECON,ioos:station:SCCF:18:1,2014-03-03T18:00:00Z,26.6955,-81.8138,8.4,1111122 
SCCF RECON,ioos:station:SCCF:18:1,2014-03-03T19:00:00Z,26.6955,-81.8138,6.8,1111122 
SCCF RECON,ioos:station:SCCF:18:1,2014-03-03T20:00:00Z,26.6955,-81.8138,6.91,1111122 
SCCF RECON,ioos:station:SCCF:18:1,2014-03-03T21:00:00Z,26.6955,-81.8138,7.58,1111122 
SCCF RECON,ioos:station:SCCF:18:1,2014-03-03T22:00:00Z,26.6955,-81.8138,7.51,1111122 
SCCF RECON,ioos:station:SCCF:18:1,2014-03-03T23:00:00Z,26.6955,-81.8138,6.79,1111122 
SCCF RECON,ioos:station:SCCF:18:1,2014-03-04T00:00:00Z,26.6955,-81.8138,6.28,1111122 
SCCF RECON,ioos:station:SCCF:18:1,2014-03-04T01:00:00Z,26.6955,-81.8138,7.14,1111122 
SCCF RECON,ioos:station:SCCF:18:1,2014-03-04T02:00:00Z,26.6955,-81.8138,6.86,1111122 
SCCF RECON,ioos:station:SCCF:18:1,2014-03-04T03:00:00Z,26.6955,-81.8138,7.45,1111122 
SCCF RECON,ioos:station:SCCF:18:1,2014-03-04T04:00:00Z,26.6955,-81.8138,7.23,1111122 
SCCF RECON,ioos:station:SCCF:18:1,2014-03-04T05:00:00Z,26.6955,-81.8138,7.26,1111122 
SCCF RECON,ioos:station:SCCF:18:1,2014-03-04T06:00:00Z,26.6955,-81.8138,7.01,1111122 
SCCF RECON,ioos:station:SCCF:18:1,2014-03-04T07:00:00Z,26.6955,-81.8138,6.95,1111122 
SCCF RECON,ioos:station:SCCF:18:1,2014-03-04T08:00:00Z,26.6955,-81.8138,6.2,1111122 
SCCF RECON,ioos:station:SCCF:18:1,2014-03-04T09:00:00Z,26.6955,-81.8138,5.99,1111122 
SCCF RECON,ioos:station:SCCF:18:1,2014-03-04T10:00:00Z,26.6955,-81.8138,6.72,1111122 
SCCF RECON,ioos:station:SCCF:18:1,2014-03-04T11:00:00Z,26.6955,-81.8138,6.08,1111122 
SCCF RECON,ioos:station:SCCF:18:1,2014-03-04T12:00:00Z,26.6955,-81.8138,5.91,1111122 
SCCF RECON,ioos:station:SCCF:18:1,2014-03-04T13:00:00Z,26.6955,-81.8138,5.99,1111122 
SCCF RECON,ioos:station:SCCF:18:1,2014-03-04T14:00:00Z,26.6955,-81.8138,5.95,1111122 
SCCF RECON,ioos:station:SCCF:18:1,2014-03-04T15:00:00Z,26.6955,-81.8138,5.74,1111122 
SCCF RECON,ioos:station:SCCF:18:1,2014-03-04T16:00:00Z,26.6955,-81.8138,6.05,1111122 
SCCF RECON,ioos:station:SCCF:18:1,2014-03-04T17:00:00Z,26.6955,-81.8138,7.18,1111122 
SCCF RECON,ioos:station:SCCF:18:1,2014-03-04T18:00:00Z,26.6955,-81.8138,7.02,1111122 
SCCF RECON,ioos:station:SCCF:18:1,2014-03-04T19:00:00Z,26.6955,-81.8138,9.03,1111122 
SCCF RECON,ioos:station:SCCF:18:1,2014-03-04T20:00:00Z,26.6955,-81.8138,6.63,1111122 
SCCF RECON,ioos:station:SCCF:18:1,2014-03-04T21:00:00Z,26.6955,-81.8138,5.67,1111122 
SCCF RECON,ioos:station:SCCF:18:1,2014-03-04T22:00:00Z,26.6955,-81.8138,6.81,1111122 
SCCF RECON,ioos:station:SCCF:18:1,2014-03-04T23:00:00Z,26.6955,-81.8138,7.09,1111122 
SCCF RECON,ioos:station:SCCF:18:1,2014-03-05T00:00:00Z,26.6955,-81.8138,6.35,1111122 
SCCF RECON,ioos:station:SCCF:18:1,2014-03-05T01:00:00Z,26.6955,-81.8138,6.98,1111122 
SCCF RECON,ioos:station:SCCF:18:1,2014-03-05T02:00:00Z,26.6955,-81.8138,7.46,1111122 
SCCF RECON,ioos:station:SCCF:18:1,2014-03-05T03:00:00Z,26.6955,-81.8138,7.45,1111122 
SCCF RECON,ioos:station:SCCF:18:1,2014-03-05T04:00:00Z,26.6955,-81.8138,7.12,1111122 
SCCF RECON,ioos:station:SCCF:18:1,2014-03-05T05:00:00Z,26.6955,-81.8138,6.92,1111122 
SCCF RECON,ioos:station:SCCF:18:1,2014-03-05T06:00:00Z,26.6955,-81.8138,6.73,1111122 
SCCF RECON,ioos:station:SCCF:18:1,2014-03-05T07:00:00Z,26.6955,-81.8138,6.85,1111122 
SCCF RECON,ioos:station:SCCF:18:1,2014-03-05T08:00:00Z,26.6955,-81.8138,6.96,1111122 
SCCF RECON,ioos:station:SCCF:18:1,2014-03-05T09:00:00Z,26.6955,-81.8138,6.47,1111122 
SCCF RECON,ioos:station:SCCF:18:1,2014-03-05T10:00:00Z,26.6955,-81.8138,5.98,1111122 
SCCF RECON,ioos:station:SCCF:18:1,2014-03-05T11:00:00Z,26.6955,-81.8138,6.58,1111122 
SCCF RECON,ioos:station:SCCF:18:1,2014-03-05T12:00:00Z,26.6955,-81.8138,5.64,1111122 
SCCF RECON,ioos:station:SCCF:18:1,2014-03-05T13:00:00Z,26.6955,-81.8138,6.02,1111122 
SCCF RECON,ioos:station:SCCF:18:1,2014-03-05T14:00:00Z,26.6955,-81.8138,5.29,1111122 
SCCF RECON,ioos:station:SCCF:18:1,2014-03-05T15:00:00Z,26.6955,-81.8138,6.11,1111122 
SCCF RECON,ioos:station:SCCF:18:1,2014-03-05T16:00:00Z,26.6955,-81.8138,6.74,1111122 
SCCF RECON,ioos:station:SCCF:18:1,2014-03-05T17:00:00Z,26.6955,-81.8138,6.86,1111122 
SCCF RECON,ioos:station:SCCF:18:1,2014-03-05T18:00:00Z,26.6955,-81.8138,7.12,1111122 
SCCF RECON,ioos:station:SCCF:18:1,2014-03-05T19:00:00Z,26.6955,-81.8138,9.58,1111122 
SCCF RECON,ioos:station:SCCF:18:1,2014-03-05T20:00:00Z,26.6955,-81.8138,7.85,1111122 
SCCF RECON,ioos:station:SCCF:18:1,2014-03-05T21:00:00Z,26.6955,-81.8138,6.9,1111122 
SCCF RECON,ioos:station:SCCF:18:1,2014-03-05T22:00:00Z,26.6955,-81.8138,7.37,1111122 
SCCF RECON,ioos:station:SCCF:18:1,2014-03-05T23:00:00Z,26.6955,-81.8138,7.15,1111122 
SCCF RECON,ioos:station:SCCF:18:1,2014-03-06T00:00:00Z,26.6955,-81.8138,6.59,1111122 
SCCF RECON,ioos:station:SCCF:18:1,2014-03-06T01:00:00Z,26.6955,-81.8138,5.91,1111122 
SCCF RECON,ioos:station:SCCF:18:1,2014-03-06T02:00:00Z,26.6955,-81.8138,6.75,1111122 
SCCF RECON,ioos:station:SCCF:18:1,2014-03-06T03:00:00Z,26.6955,-81.8138,7.59,1111122 
SCCF RECON,ioos:station:SCCF:18:1,2014-03-06T04:00:00Z,26.6955,-81.8138,7.53,1111122 
SCCF RECON,ioos:station:SCCF:18:1,2014-03-06T05:00:00Z,26.6955,-81.8138,7.2,1111122 
SCCF RECON,ioos:station:SCCF:18:1,2014-03-06T06:00:00Z,26.6955,-81.8138,7.25,1111122 
SCCF RECON,ioos:station:SCCF:18:1,2014-03-06T07:00:00Z,26.6955,-81.8138,7.04,1111122 
SCCF RECON,ioos:station:SCCF:18:1,2014-03-06T08:00:00Z,26.6955,-81.8138,7.09,1111122 
SCCF RECON,ioos:station:SCCF:18:1,2014-03-06T09:00:00Z,26.6955,-81.8138,7.06,1111122 
SCCF RECON,ioos:station:SCCF:18:1,2014-03-06T10:00:00Z,26.6955,-81.8138,6.47,1111122 
SCCF RECON,ioos:station:SCCF:18:1,2014-03-06T11:00:00Z,26.6955,-81.8138,6.77,1111122 
SCCF RECON,ioos:station:SCCF:18:1,2014-03-06T12:00:00Z,26.6955,-81.8138,7.15,1111122 
SCCF RECON,ioos:station:SCCF:18:1,2014-03-06T13:00:00Z,26.6955,-81.8138,6.29,1111122 
SCCF RECON,ioos:station:SCCF:18:1,2014-03-06T14:00:00Z,26.6955,-81.8138,6.82,1111122 
SCCF RECON,ioos:station:SCCF:18:1,2014-03-06T15:00:00Z,26.6955,-81.8138,7.11,1111122 
SCCF RECON,ioos:station:SCCF:18:1,2014-03-06T16:00:00Z,26.6955,-81.8138,6.34,1111122 
SCCF RECON,ioos:station:SCCF:18:1,2014-03-06T17:00:00Z,26.6955,-81.8138,6.96,1111122 
SCCF RECON,ioos:station:SCCF:18:1,2014-03-06T18:00:00Z,26.6955,-81.8138,7.44,1111122 
SCCF RECON,ioos:station:SCCF:18:1,2014-03-06T19:00:00Z,26.6955,-81.8138,7.09,1111122 
SCCF RECON,ioos:station:SCCF:18:1,2014-03-06T20:00:00Z,26.6955,-81.8138,5.7,1111122 
SCCF RECON,ioos:station:SCCF:18:1,2014-03-06T21:00:00Z,26.6955,-81.8138,5.24,1111122 
SCCF RECON,ioos:station:SCCF:18:1,2014-03-06T22:00:00Z,26.6955,-81.8138,4.96,1111122 
SCCF RECON,ioos:station:SCCF:18:1,2014-03-06T23:00:00Z,26.6955,-81.8138,5.06,1111122 
SCCF RECON,ioos:station:SCCF:18:1,2014-03-07T00:00:00Z,26.6955,-81.8138,5.01,1111122 
SCCF RECON,ioos:station:SCCF:18:1,2014-03-07T01:00:00Z,26.6955,-81.8138,4.98,1111122 
SCCF RECON,ioos:station:SCCF:18:1,2014-03-07T02:00:00Z,26.6955,-81.8138,4.97,1111122 
SCCF RECON,ioos:station:SCCF:18:1,2014-03-07T03:00:00Z,26.6955,-81.8138,5.08,1111122 
SCCF RECON,ioos:station:SCCF:18:1,2014-03-07T04:00:00Z,26.6955,-81.8138,5.64,1111122 
SCCF RECON,ioos:station:SCCF:18:1,2014-03-07T05:00:00Z,26.6955,-81.8138,5.6,1111122 
SCCF RECON,ioos:station:SCCF:18:1,2014-03-07T06:00:00Z,26.6955,-81.8138,5.73,1111122 
SCCF RECON,ioos:station:SCCF:18:1,2014-03-07T07:00:00Z,26.6955,-81.8138,5.71,1111122 
SCCF RECON,ioos:station:SCCF:18:1,2014-03-07T08:00:00Z,26.6955,-81.8138,5.5,1111122 
SCCF RECON,ioos:station:SCCF:18:1,2014-03-07T09:00:00Z,26.6955,-81.8138,5.85,1111122 
SCCF RECON,ioos:station:SCCF:18:1,2014-03-07T10:00:00Z,26.6955,-81.8138,5.83,1111122 
SCCF RECON,ioos:station:SCCF:18:1,2014-03-07T11:00:00Z,26.6955,-81.8138,5.72,1111122 
SCCF RECON,ioos:station:SCCF:18:1,2014-03-07T12:00:00Z,26.6955,-81.8138,5.34,1111122 
SCCF RECON,ioos:station:SCCF:18:1,2014-03-07T13:00:00Z,26.6955,-81.8138,5.67,1111122 
SCCF RECON,ioos:station:SCCF:18:1,2014-03-07T14:00:00Z,26.6955,-81.8138,5.49,1111122 
SCCF RECON,ioos:station:SCCF:18:1,2014-03-07T15:00:00Z,26.6955,-81.8138,5.35,1111122 
SCCF RECON,ioos:station:SCCF:18:1,2014-03-07T16:00:00Z,26.6955,-81.8138,5.35,1111122 
SCCF RECON,ioos:station:SCCF:18:1,2014-03-07T17:00:00Z,26.6955,-81.8138,5.49,1111122 
SCCF RECON,ioos:station:SCCF:18:1,2014-03-07T18:00:00Z,26.6955,-81.8138,5.38,1111122 
SCCF RECON,ioos:station:SCCF:18:1,2014-03-07T19:00:00Z,26.6955,-81.8138,5.86,1111122 
SCCF RECON,ioos:station:SCCF:18:1,2014-03-07T20:00:00Z,26.6955,-81.8138,6.49,1111122 
SCCF RECON,ioos:station:SCCF:18:1,2014-03-07T21:00:00Z,26.6955,-81.8138,6.8,1111122 
SCCF RECON,ioos:station:SCCF:18:1,2014-03-07T22:00:00Z,26.6955,-81.8138,7.08,1111122 
SCCF RECON,ioos:station:SCCF:18:1,2014-03-07T23:00:00Z,26.6955,-81.8138,7.07,1111122 
SCCF RECON,ioos:station:SCCF:18:1,2014-03-08T00:00:00Z,26.6955,-81.8138,6.37,1111122 
SCCF RECON,ioos:station:SCCF:18:1,2014-03-08T01:00:00Z,26.6955,-81.8138,6.4,1111122 
SCCF RECON,ioos:station:SCCF:18:1,2014-03-08T02:00:00Z,26.6955,-81.8138,6.21,1111122 
SCCF RECON,ioos:station:SCCF:18:1,2014-03-08T03:00:00Z,26.6955,-81.8138,6.23,1111122 
SCCF RECON,ioos:station:SCCF:18:1,2014-03-08T04:00:00Z,26.6955,-81.8138,6.32,1111122 
SCCF RECON,ioos:station:SCCF:18:1,2014-03-08T05:00:00Z,26.6955,-81.8138,6.29,1111122 
SCCF RECON,ioos:station:SCCF:18:1,2014-03-08T06:00:00Z,26.6955,-81.8138,6.08,1111122 
SCCF RECON,ioos:station:SCCF:18:1,2014-03-08T07:00:00Z,26.6955,-81.8138,6.16,1111122 
SCCF RECON,ioos:station:SCCF:18:1,2014-03-08T08:00:00Z,26.6955,-81.8138,6.33,1111122 
SCCF RECON,ioos:station:SCCF:18:1,2014-03-08T09:00:00Z,26.6955,-81.8138,6.31,1111122 
SCCF RECON,ioos:station:SCCF:18:1,2014-03-08T10:00:00Z,26.6955,-81.8138,6.27,1111122 
SCCF RECON,ioos:station:SCCF:18:1,2014-03-08T11:00:00Z,26.6955,-81.8138,6.49,1111122 
SCCF RECON,ioos:station:SCCF:18:1,2014-03-08T12:00:00Z,26.6955,-81.8138,6.53,1111122 
SCCF RECON,ioos:station:SCCF:18:1,2014-03-08T13:00:00Z,26.6955,-81.8138,6.15,1111122 
SCCF RECON,ioos:station:SCCF:18:1,2014-03-08T14:00:00Z,26.6955,-81.8138,5.76,1111122 
SCCF RECON,ioos:station:SCCF:18:1,2014-03-08T15:00:00Z,26.6955,-81.8138,6.27,1111122 
SCCF RECON,ioos:station:SCCF:18:1,2014-03-08T16:00:00Z,26.6955,-81.8138,6.11,1111122 
SCCF RECON,ioos:station:SCCF:18:1,2014-03-08T17:00:00Z,26.6955,-81.8138,5.91,1111122 
SCCF RECON,ioos:station:SCCF:18:1,2014-03-08T18:00:00Z,26.6955,-81.8138,6.45,1111122 
SCCF RECON,ioos:station:SCCF:18:1,2014-03-08T19:00:00Z,26.6955,-81.8138,7.18,1111122 
SCCF RECON,ioos:station:SCCF:18:1,2014-03-08T20:00:00Z,26.6955,-81.8138,7.21,1111122 
SCCF RECON,ioos:station:SCCF:18:1,2014-03-08T21:00:00Z,26.6955,-81.8138,6.12,1111122 
SCCF RECON,ioos:station:SCCF:18:1,2014-03-08T22:00:00Z,26.6955,-81.8138,7.0,1111122 
SCCF RECON,ioos:station:SCCF:18:1,2014-03-08T23:00:00Z,26.6955,-81.8138,8.58,1111122 
SCCF RECON,ioos:station:SCCF:18:1,2014-03-09T00:00:00Z,26.6955,-81.8138,6.42,1111122 
SCCF RECON,ioos:station:SCCF:18:1,2014-03-09T01:00:00Z,26.6955,-81.8138,5.78,1111122 
SCCF RECON,ioos:station:SCCF:18:1,2014-03-09T02:00:00Z,26.6955,-81.8138,6.21,1111122 
SCCF RECON,ioos:station:SCCF:18:1,2014-03-09T03:00:00Z,26.6955,-81.8138,6.89,1111122 
SCCF RECON,ioos:station:SCCF:18:1,2014-03-09T04:00:00Z,26.6955,-81.8138,6.73,1111122 
SCCF RECON,ioos:station:SCCF:18:1,2014-03-09T05:00:00Z,26.6955,-81.8138,7.97,1111122 
SCCF RECON,ioos:station:SCCF:18:1,2014-03-09T06:00:00Z,26.6955,-81.8138,7.06,1111122 
SCCF RECON,ioos:station:SCCF:18:1,2014-03-09T07:00:00Z,26.6955,-81.8138,7.19,1111122 
SCCF RECON,ioos:station:SCCF:18:1,2014-03-09T08:00:00Z,26.6955,-81.8138,6.73,1111122 
SCCF RECON,ioos:station:SCCF:18:1,2014-03-09T09:00:00Z,26.6955,-81.8138,6.44,1111122 
SCCF RECON,ioos:station:SCCF:18:1,2014-03-09T10:00:00Z,26.6955,-81.8138,6.15,1111122 
SCCF RECON,ioos:station:SCCF:18:1,2014-03-09T11:00:00Z,26.6955,-81.8138,6.25,1111122 
SCCF RECON,ioos:station:SCCF:18:1,2014-03-09T12:00:00Z,26.6955,-81.8138,7.02,1111122 
SCCF RECON,ioos:station:SCCF:18:1,2014-03-09T13:00:00Z,26.6955,-81.8138,6.9,1111122 
SCCF RECON,ioos:station:SCCF:18:1,2014-03-09T14:00:00Z,26.6955,-81.8138,6.93,1111122 
SCCF RECON,ioos:station:SCCF:18:1,2014-03-09T15:00:00Z,26.6955,-81.8138,5.7,1111122 
SCCF RECON,ioos:station:SCCF:18:1,2014-03-09T16:00:00Z,26.6955,-81.8138,7.68,1111122 
SCCF RECON,ioos:station:SCCF:18:1,2014-03-09T17:00:00Z,26.6955,-81.8138,5.89,1111122 
SCCF RECON,ioos:station:SCCF:18:1,2014-03-09T18:00:00Z,26.6955,-81.8138,7.1,1111122 
SCCF RECON,ioos:station:SCCF:18:1,2014-03-09T19:00:00Z,26.6955,-81.8138,8.66,1111122 
SCCF RECON,ioos:station:SCCF:18:1,2014-03-09T20:00:00Z,26.6955,-81.8138,9.6,1111122 
SCCF RECON,ioos:station:SCCF:18:1,2014-03-09T21:00:00Z,26.6955,-81.8138,10.22,1111122 
SCCF RECON,ioos:station:SCCF:18:1,2014-03-09T22:00:00Z,26.6955,-81.8138,12.62,1111122 
SCCF RECON,ioos:station:SCCF:18:1,2014-03-09T23:00:00Z,26.6955,-81.8138,8.14,1111122 
SCCF RECON,ioos:station:SCCF:18:1,2014-03-10T00:00:00Z,26.6955,-81.8138,9.4,1111122 
SCCF RECON,ioos:station:SCCF:18:1,2014-03-10T01:00:00Z,26.6955,-81.8138,8.92,1111122 
SCCF RECON,ioos:station:SCCF:18:1,2014-03-10T02:00:00Z,26.6955,-81.8138,9.25,1111122 
SCCF RECON,ioos:station:SCCF:18:1,2014-03-10T03:00:00Z,26.6955,-81.8138,8.92,1111122 
SCCF RECON,ioos:station:SCCF:18:1,2014-03-10T04:00:00Z,26.6955,-81.8138,8.58,1111122 
SCCF RECON,ioos:station:SCCF:18:1,2014-03-10T05:00:00Z,26.6955,-81.8138,9.14,1111122 
SCCF RECON,ioos:station:SCCF:18:1,2014-03-10T06:00:00Z,26.6955,-81.8138,8.35,1111122 
SCCF RECON,ioos:station:SCCF:18:1,2014-03-10T07:00:00Z,26.6955,-81.8138,8.65,1111122 
SCCF RECON,ioos:station:SCCF:18:1,2014-03-10T08:00:00Z,26.6955,-81.8138,8.81,1111122 
SCCF RECON,ioos:station:SCCF:18:1,2014-03-10T09:00:00Z,26.6955,-81.8138,7.72,1111122 
SCCF RECON,ioos:station:SCCF:18:1,2014-03-10T10:00:00Z,26.6955,-81.8138,7.36,1111122 
SCCF RECON,ioos:station:SCCF:18:1,2014-03-10T11:00:00Z,26.6955,-81.8138,7.1,1111122 
SCCF RECON,ioos:station:SCCF:18:1,2014-03-10T12:00:00Z,26.6955,-81.8138,8.3,1111122 
SCCF RECON,ioos:station:SCCF:18:1,2014-03-10T13:00:00Z,26.6955,-81.8138,7.16,1111122 
SCCF RECON,ioos:station:SCCF:18:1,2014-03-10T14:00:00Z,26.6955,-81.8138,8.41,1111122 
SCCF RECON,ioos:station:SCCF:18:1,2014-03-10T15:00:00Z,26.6955,-81.8138,9.34,1111122 
SCCF RECON,ioos:station:SCCF:18:1,2014-03-10T16:00:00Z,26.6955,-81.8138,7.96,1111122 
SCCF RECON,ioos:station:SCCF:18:1,2014-03-10T17:00:00Z,26.6955,-81.8138,8.73,1111122 
SCCF RECON,ioos:station:SCCF:18:1,2014-03-10T18:00:00Z,26.6955,-81.8138,8.44,1111122 
SCCF RECON,ioos:station:SCCF:18:1,2014-03-10T19:00:00Z,26.6955,-81.8138,7.85,1111122 
SCCF RECON,ioos:station:SCCF:18:1,2014-03-10T20:00:00Z,26.6955,-81.8138,8.48,1111122 
SCCF RECON,ioos:station:SCCF:18:1,2014-03-10T21:00:00Z,26.6955,-81.8138,6.85,1111122 
SCCF RECON,ioos:station:SCCF:18:1,2014-03-10T22:00:00Z,26.6955,-81.8138,10.77,1111122 
SCCF RECON,ioos:station:SCCF:18:1,2014-03-10T23:00:00Z,26.6955,-81.8138,10.45,1111122 
SCCF RECON,ioos:station:SCCF:18:1,2014-03-11T00:00:00Z,26.6955,-81.8138,9.16,1111122 
SCCF RECON,ioos:station:SCCF:18:1,2014-03-11T01:00:00Z,26.6955,-81.8138,9.84,1111122 
SCCF RECON,ioos:station:SCCF:18:1,2014-03-11T02:00:00Z,26.6955,-81.8138,10.01,1111122 
SCCF RECON,ioos:station:SCCF:18:1,2014-03-11T03:00:00Z,26.6955,-81.8138,8.91,1111122 
SCCF RECON,ioos:station:SCCF:18:1,2014-03-11T04:00:00Z,26.6955,-81.8138,8.48,1111122 
SCCF RECON,ioos:station:SCCF:18:1,2014-03-11T05:00:00Z,26.6955,-81.8138,8.54,1111122 
SCCF RECON,ioos:station:SCCF:18:1,2014-03-11T06:00:00Z,26.6955,-81.8138,7.99,1111122 
SCCF RECON,ioos:station:SCCF:18:1,2014-03-11T07:00:00Z,26.6955,-81.8138,8.33,1111122 
SCCF RECON,ioos:station:SCCF:18:1,2014-03-11T08:00:00Z,26.6955,-81.8138,9.95,1111122 
SCCF RECON,ioos:station:SCCF:18:1,2014-03-11T09:00:00Z,26.6955,-81.8138,8.59,1111122 
SCCF RECON,ioos:station:SCCF:18:1,2014-03-11T10:00:00Z,26.6955,-81.8138,8.27,1111122 
SCCF RECON,ioos:station:SCCF:18:1,2014-03-11T11:00:00Z,26.6955,-81.8138,8.09,1111122 
SCCF RECON,ioos:station:SCCF:18:1,2014-03-11T12:00:00Z,26.6955,-81.8138,8.03,1111122 
SCCF RECON,ioos:station:SCCF:18:1,2014-03-11T13:00:00Z,26.6955,-81.8138,8.4,1111122 
SCCF RECON,ioos:station:SCCF:18:1,2014-03-11T14:00:00Z,26.6955,-81.8138,8.35,1111122 
SCCF RECON,ioos:station:SCCF:18:1,2014-03-11T15:00:00Z,26.6955,-81.8138,10.77,1111122 
SCCF RECON,ioos:station:SCCF:18:1,2014-03-11T16:00:00Z,26.6955,-81.8138,12.44,1111122 
SCCF RECON,ioos:station:SCCF:18:1,2014-03-11T17:00:00Z,26.6955,-81.8138,9.5,1111122 
SCCF RECON,ioos:station:SCCF:18:1,2014-03-11T18:00:00Z,26.6955,-81.8138,7.83,1111122 
SCCF RECON,ioos:station:SCCF:18:1,2014-03-11T19:00:00Z,26.6955,-81.8138,9.81,1111122 
SCCF RECON,ioos:station:SCCF:18:1,2014-03-11T20:00:00Z,26.6955,-81.8138,7.17,1111122 
SCCF RECON,ioos:station:SCCF:18:1,2014-03-11T21:00:00Z,26.6955,-81.8138,9.74,1111122 
SCCF RECON,ioos:station:SCCF:18:1,2014-03-11T22:00:00Z,26.6955,-81.8138,10.53,1111122 
SCCF RECON,ioos:station:SCCF:18:1,2014-03-11T23:00:00Z,26.6955,-81.8138,11.11,1111122 
SCCF RECON,ioos:station:SCCF:18:1,2014-03-12T00:00:00Z,26.6955,-81.8138,12.23,1111122 
SCCF RECON,ioos:station:SCCF:18:1,2014-03-12T01:00:00Z,26.6955,-81.8138,11.41,1111122 
SCCF RECON,ioos:station:SCCF:18:1,2014-03-12T02:00:00Z,26.6955,-81.8138,9.88,1111122 
SCCF RECON,ioos:station:SCCF:18:1,2014-03-12T03:00:00Z,26.6955,-81.8138,8.29,1111122 
SCCF RECON,ioos:station:SCCF:18:1,2014-03-12T04:00:00Z,26.6955,-81.8138,9.04,1111122 
SCCF RECON,ioos:station:SCCF:18:1,2014-03-12T05:00:00Z,26.6955,-81.8138,7.45,1111122 
SCCF RECON,ioos:station:SCCF:18:1,2014-03-12T06:00:00Z,26.6955,-81.8138,5.8,1111122 
SCCF RECON,ioos:station:SCCF:18:1,2014-03-12T07:00:00Z,26.6955,-81.8138,5.92,1111122 
SCCF RECON,ioos:station:SCCF:18:1,2014-03-12T08:00:00Z,26.6955,-81.8138,7.21,1111122 
SCCF RECON,ioos:station:SCCF:18:1,2014-03-12T09:00:00Z,26.6955,-81.8138,8.09,1111122 
SCCF RECON,ioos:station:SCCF:18:1,2014-03-12T10:00:00Z,26.6955,-81.8138,8.44,1111122 
SCCF RECON,ioos:station:SCCF:18:1,2014-03-12T11:00:00Z,26.6955,-81.8138,8.1,1111122 
SCCF RECON,ioos:station:SCCF:18:1,2014-03-12T12:00:00Z,26.6955,-81.8138,8.79,1111122 
SCCF RECON,ioos:station:SCCF:18:1,2014-03-12T13:00:00Z,26.6955,-81.8138,8.34,1111122 